ROMMA est une association bénévole à but non lucratif. Votre soutien est indispensable : ADHERER à ROMMA ou FAIRE un DON

Chambon - (38, Isère)

Oisans (2460 m)   Longitude: 06° 10' 42" E   Latitude: 45° 01' 32" N Station partenaire n°803
 

Détail journalier du     <<     >>

Température Humidité Vent Dir Rafale Dir. rafale Neige 1 Neige 2
Heure (°C) (%) (km/h) (km/h) (cm) (cm)
01:00 1.0652NNE7O185231
02:00 0.8663OSO9OSO185231
03:00 0.7652E10O185231
04:00 0.5684OSO11OSO185231
05:00 0.6653SO8SO185231
06:00 0.6655OSO9O184231
07:00 0.5654OSO8OSO184231
08:00 0.9584N9OSO184231
09:00 4.1452N5N184231
10:00 2.6525OSO11OSO184231
11:00 5.6434OSO11OSO183231
12:00 5.8442OSO8OSO183231
13:00 5.1495SO13OSO183231
14:00 3.9555NNE11OSO184231
15:00 4.5544N9N182230
16:00 5.9503N7N182230
17:00 8.3451ENE6ENE181229
18:00 7.0512ESE10SO180229
19:00 4.0644SO11SO181229
20:00 3.2693SSO8NO181228
21:00 2.2743SSO8SSO180228
22:00 1.9753SO8ONO180228
23:00 1.3772N6N180228
minuit 1.0792N19ENE180228

Graphique du 18-04-2019

 

Serveur OMMA